Location: *
(46.0770°N, 1.6444°E)
Time: 14:12:31
(UTC+00:00)

Cosmos 1140 Rocket - Pass Details

Date: 16 September 2019
Orbit: 745 x 767 km, 74.1° (Epoch: 14 October)

Event Time Altitude Azimuth Distance (km) Brightness Sun altitude
Rises 19:58:18 0° 341° (NNW) 3,226 7.4 -19.9°
Reaches altitude 10° 20:00:44 10° 346° (NNW) 2,293 6.5 -20.3°
Maximum altitude 20:05:50 55° 64° (ENE) 901 3.6 -21.1°
Enters shadow 20:06:48 48° 104° (ESE) 983 3.6 -21.2°
